SCP
0 0 0 0 0 0 0 0 0 0 0 0 1 1 1 1 2 1 1 1 1 1 1 1 1 1 1 1 1 1 0 0 0 0 0 0 0 0 0 0 0 0 0
0 0 0 0 0 0 0 0 0 1 1 1 1 1 1 1 1 1 1 1 1 1 1 1 1 1 1 1 1 1 1 0 0 0 0 0 0 0 0 0 0 0 0
0 0 0 0 0 0 0 0 1 1 1 1 1 1 1 1 1 1 1 1 1 1 1 1 1 1 1 1 1 1 1 0 0 0 0 0 0 0 0 0 0 0 0
0 0 0 0 0 0 0 0 1 1 1 1 1 1 1 1 1 1 1 1 1 1 1 1 1 1 1 1 1 1 1 1 0 0 0 0 0 0 0 0 0 0 0
0 0 0 0 0 0 0 1 1 1 1 1 1 1 1 1 1 1 1 1 1 1 1 1 1 1 1 1 1 1 1 1 0 0 0 0 0 0 0 0 0 0 0
0 0 0 0 0 0 1 1 2 2 1 1 1 1 1 0 1 1 1 1 1 1 1 1 1 1 1 1 1 1 1 1 1 0 0 0 0 0 0 0 0 0 0
0 0 0 0 0 0 1 1 2 2 1 1 1 1 1 1 0 0 0 0 1 1 1 1 1 1 1 1 1 1 0 1 1 0 0 0 0 0 0 0 0 0 0
0 0 0 0 0 0 1 1 1 1 1 1 1 1 1 1 1 0 0 0 1 0 0 0 1 1 1 1 0 0 0 0 0 0 0 0 0 0 0 0 0 0 0
0 0 0 0 0 0 0 0 0 0 0 1 1 1 1 0 0 0 1 1 0 0 0 0 0 1 1 1 0 0 0 0 0 0 0 0 0 0 0 0 0 0 0
0 0 0 0 0 0 0 0 0 0 0 0 1 0 0 0 0 0 0 0 0 0 0 0 0 1 1 1 0 0 0 0 0 0 0 0 0 0 0 0 0 0 0
0 0 0 0 0 0 0 0 0 0 0 0 0 0 0 0 0 0 0 0 0 0 0 0 0 1 1 1 0 0 0 0 0 0 0 0 0 0 0 0 0 0 0
0 0 0 0 0 0 0 0 0 0 0 0 0 0 0 0 0 0 0 0 0 0 0 0 0 1 1 1 1 0 0 0 0 0 0 0 0 0 0 1 0 0 0
0 0 0 0 0 0 0 0 0 0 0 0 0 0 0 0 0 0 0 0 0 0 0 0 0 1 1 1 1 0 0 0 0 0 0 0 0 0 0 1 0 0 0
0 0 0 0 0 0 0 0 0 0 0 0 0 0 0 0 0 0 0 0 0 0 0 0 0 0 1 1 1 1 1 0 0 0 0 0 0 0 0 0 0 0 0
0 0 0 0 0 0 0 0 0 0 0 0 0 0 0 0 0 0 0 0 0 0 0 0 1 1 0 0 1 1 1 0 0 0 0 0 0 0 0 0 0 0 0
0 0 0 0 0 0 0 0 0 0 0 0 0 0 0 0 0 0 0 0 0 0 0 0 0 0 0 0 0 0 0 0 0 0 0 0 0 0 0 0 0 0 0
0 0 0 0 0 0 0 0 0 0 0 0 0 0 0 0 0 0 0 0 0 0 0 0 0 0 0 0 0 0 0 0 0 0 0 0 0 0 0 0 0 0 0
0 0 0 0 0 0 0 0 0 0 0 0 0 0 0 0 0 0 0 0 0 0 0 0 0 0 0 0 0 0 0 0 0 0 0 0 0 0 0 0 0 0 0
0 0 0 0 0 0 0 0 0 0 0 0 0 0 0 0 0 0 0 0 0 0 0 0 0 0 0 0 0 0 0 0 0 0 0 0 0 0 0 0 0 0 0
0 0 0 0 0 0 0 0 0 0 0 0 0 0 0 0 0 0 0 0 0 0 0 0 0 0 0 0 0 0 0 0 0 0 0 0 0 0 0 0 0 0 0
0 0 0 0 0 0 0 0 0 0 0 0 0 0 0 0 0 0 0 0 0 0 0 0 0 0 0 0 0 0 0 0 0 0 0 0 0 0 0 0 0 0 0
0 0 0 0 0 0 0 0 0 0 0 0 0 0 0 0 0 0 0 0 0 0 0 0 0 0 0 0 0 0 0 0 0 0 0 0 0 0 0 0 0 0 0
0 0 0 0 0 0 0 0 0 0 0 0 0 0 0 0 0 0 0 0 0 0 0 0 0 0 0 0 0 0 0 0 0 0 0 0 0 0 0 0 0 0 0
0 0 0 0 0 0 0 0 0 0 0 0 0 0 0 0 0 0 0 0 0 0 0 0 0 0 0 0 0 0 0 0 0 0 0 0 0 0 0 0 0 0 0
0 0 0 0 0 0 0 0 0 0 0 0 0 0 0 0 0 0 0 0 0 0 0 0 0 0 0 0 0 0 0 0 0 0 0 0 0 0 0 0 0 0 0
0 0 0 0 0 0 0 0 0 0 0 0 0 0 0 0 0 0 0 0 0 0 0 0 0 0 0 0 0 0 0 0 0 0 0 0 0 0 0 0 0 0 0
Wind_Speed
6 5 4 4 4 3 3 4 4 5 5 4 4 4 5 4 4 4 5 6 6 6 6 6 7 7 7 7 8 5 6 4 3 2 1 1 2 3 3 3 3 4 4
7 6 4 3 1 2 3 3 5 4 5 4 4 4 4 4 4 4 5 6 6 7 6 7 7 8 7 8 8 6 5 3 4 4 3 1 1 2 3 3 4 4 3
7 6 5 3 2 2 3 3 4 5 5 5 3 3 3 3 3 3 4 5 7 8 8 8 7 7 8 8 8 8 8 6 4 4 4 4 4 2 2 4 4 4 4
8 6 5 4 3 2 1 2 3 4 4 5 5 6 5 5 4 4 4 4 6 6 7 8 8 8 7 8 8 8 6 7 6 4 3 3 3 3 2 2 3 4 4
8 8 6 4 4 3 1 1 2 2 3 4 5 5 5 4 3 3 4 4 4 5 6 7 8 7 7 8 8 7 7 6 6 5 3 2 2 2 3 4 3 3 4
9 8 7 5 5 4 2 1 1 1 1 3 4 5 5 5 4 4 5 4 3 3 5 6 6 6 6 7 8 8 8 7 6 4 4 4 3 4 3 4 4 4 4
9 9 8 7 6 6 5 4 3 2 1 2 2 3 4 4 5 4 4 3 3 3 4 5 6 5 5 6 6 6 6 7 7 6 5 4 4 3 3 3 4 4 3
9 9 8 7 6 6 6 6 6 4 3 3 2 1 2 2 2 2 2 3 3 3 3 4 5 5 5 5 5 5 6 5 6 7 6 5 5 4 4 4 4 4 4
9 9 9 8 7 7 7 7 6 6 5 5 4 4 2 2 2 2 2 1 1 1 2 3 3 3 4 5 5 4 5 5 5 6 6 5 5 5 4 4 5 6 7
8 9 8 8 8 7 7 7 8 7 6 6 4 4 3 3 2 2 2 1 1 1 1 2 3 3 3 4 4 4 4 5 5 4 5 6 4 4 4 5 5 5 6
8 8 8 8 9 9 9 9 8 8 8 7 6 6 5 4 3 3 2 1 1 1 1 1 1 2 3 4 3 3 4 5 5 4 5 7 6 5 4 4 4 5 5
7 7 8 9 9 10 10 10 9 9 8 8 8 7 6 5 5 4 3 2 2 1 1 1 0 1 2 3 4 4 4 5 6 5 5 6 5 6 5 5 5 5 5
7 7 8 9 9 10 10 10 10 9 8 8 8 8 8 7 6 5 4 3 2 2 2 1 1 1 2 2 3 4 4 5 6 6 6 6 5 6 5 5 6 5 4
6 7 8 8 8 9 9 9 9 9 9 9 8 9 8 7 6 5 5 4 3 2 1 1 1 2 2 2 2 3 4 4 5 5 5 6 6 7 6 6 6 5 5
6 6 6 7 7 8 9 9 9 9 8 9 9 8 7 7 6 6 5 4 4 3 2 1 1 1 1 1 2 3 3 3 4 4 4 5 6 8 7 5 6 5 5
4 5 6 6 7 7 7 8 8 8 7 8 8 7 7 7 7 6 5 5 5 4 3 2 1 1 2 3 4 3 2 3 3 4 4 4 5 5 7 7 7 7 6
2 3 4 4 5 5 5 6 6 6 7 7 7 7 7 7 7 6 6 5 5 4 3 2 2 2 3 5 4 4 2 2 3 4 4 3 3 4 4 4 4 6 7
2 2 2 3 4 4 5 5 5 6 7 7 7 8 8 7 7 7 6 6 4 4 3 3 2 2 4 5 5 5 2 2 3 3 4 3 3 3 3 2 3 3 3
2 1 1 2 2 3 4 4 5 6 6 7 7 7 7 7 7 7 7 6 5 5 4 4 3 3 4 5 5 5 1 2 3 3 3 3 3 4 5 3 2 3 3
1 0 1 2 2 3 3 4 5 6 6 6 7 6 6 6 6 6 6 5 4 4 4 3 3 3 3 5 6 6 1 2 2 2 2 3 4 4 5 3 2 2 3
1 1 1 1 2 3 3 4 4 5 5 6 6 6 6 6 5 5 5 5 4 4 3 3 3 3 3 5 7 7 2 2 2 2 2 2 5 6 6 5 2 3 2
0 1 1 1 2 2 3 3 4 5 5 5 5 5 6 5 5 5 5 4 4 4 4 4 4 3 3 5 6 7 6 5 2 3 3 3 6 6 6 4 3 3 2
1 0 0 1 2 1 1 2 4 4 4 4 5 5 5 5 4 4 5 4 4 4 4 4 4 4 3 4 8 8 8 7 4 3 4 5 6 5 3 3 3 2 1
1 1 1 1 2 2 2 3 4 4 4 4 5 5 5 5 5 4 4 4 4 4 4 4 4 4 4 3 3 3 3 5 4 3 3 4 5 4 3 3 2 1 0
1 1 1 2 3 3 3 3 3 3 4 4 4 5 5 5 5 5 4 4 3 4 5 4 4 4 4 5 8 5 3 3 3 3 2 2 2 2 2 2 2 2 2
1 1 2 2 3 2 3 3 2 2 3 4 4 4 4 4 4 4 5 7 6 8 8 7 6 5 6 8 7 7 6 6 5 3 1 1 1 2 2 2 2 2 1
Wind_Direction
292 293 277 259 236 212 199 204 204 210 192 175 173 177 189 191 185 189 187 192 187 187 187 188 183 181 188 191 184 178 181 183 161 148 204 282 234 224 223 214 210 216 220
332 330 317 304 246 207 204 204 211 206 196 186 179 180 184 185 182 186 190 197 192 190 194 191 191 189 189 190 187 173 174 179 174 163 153 220 280 245 223 213 214 217 210
333 333 339 328 308 245 212 214 214 209 196 186 175 180 169 160 168 181 197 204 199 196 196 191 194 193 191 193 193 186 183 183 188 180 166 174 215 242 230 220 219 213 207
346 346 343 349 343 313 260 217 210 198 194 184 183 183 183 184 190 189 196 203 202 202 201 194 193 196 194 192 194 192 192 183 189 198 207 192 168 186 236 232 218 215 216
352 357 356 350 350 344 330 245 206 182 190 188 189 184 192 191 182 178 186 198 199 199 202 198 192 193 196 194 193 194 193 192 194 192 191 198 207 196 204 242 234 233 226
358 359 2 5 6 4 11 19 89 133 179 180 184 188 191 184 180 191 190 190 188 194 199 199 195 194 197 196 195 194 195 199 199 201 197 192 194 198 205 227 233 244 240
1 1 4 7 10 9 17 38 52 56 75 121 164 183 189 183 192 195 185 181 188 196 198 197 196 194 196 196 191 189 198 203 201 202 212 216 220 211 214 224 240 254 260
3 7 13 17 11 11 18 35 41 46 52 59 52 69 138 167 183 181 174 184 193 194 188 196 199 195 193 195 190 189 196 205 210 212 214 224 228 221 217 214 223 252 262
7 12 17 21 18 17 22 33 38 37 37 36 33 42 62 111 122 128 146 167 158 171 178 191 196 195 195 196 191 195 200 203 215 218 219 227 233 228 230 220 212 220 248
9 12 16 19 19 24 28 35 37 36 34 32 32 42 54 82 94 103 109 109 104 127 168 201 205 192 197 199 193 196 202 208 218 226 226 231 234 232 233 230 231 227 233
8 11 14 19 24 27 30 32 33 34 32 32 34 41 40 50 67 73 80 95 72 68 95 197 210 206 199 200 196 201 209 220 226 228 232 237 232 229 228 228 231 236 235
9 11 16 20 24 27 28 29 29 31 28 27 31 35 34 41 48 48 42 53 54 32 6 13 334 253 217 210 203 208 215 224 230 231 234 242 241 236 232 228 232 237 237
13 15 18 20 21 21 22 23 23 24 24 28 31 31 29 33 35 27 24 31 31 20 6 6 347 298 253 230 222 214 221 225 230 230 233 242 244 242 242 239 235 236 242
18 19 17 15 16 17 16 18 18 17 19 24 27 27 23 22 22 19 19 21 18 8 340 289 273 259 244 232 239 234 235 235 241 240 239 243 244 244 240 238 237 236 236
14 13 11 10 13 15 13 14 13 12 16 23 23 18 15 19 22 21 17 12 10 355 323 298 297 274 245 240 265 254 244 243 254 256 250 248 254 258 247 244 236 229 231
1 2 6 8 8 10 8 8 7 5 13 22 18 11 13 14 14 15 13 12 9 360 356 355 343 325 318 320 316 298 243 250 262 271 269 265 254 271 265 258 252 241 228
337 349 352 353 357 359 0 3 360 1 12 16 13 10 9 10 6 4 5 4 1 357 356 356 358 340 326 336 331 316 286 257 260 267 276 288 288 294 271 262 268 262 255
296 320 338 345 349 351 355 356 2 9 12 12 8 3 2 1 358 0 358 354 351 349 351 351 345 336 329 335 332 335 312 269 266 260 258 268 277 284 295 292 285 280 275
229 254 301 334 348 350 347 358 8 11 12 6 359 355 354 351 351 352 347 344 346 347 347 346 344 335 322 331 335 339 302 288 286 283 278 276 269 298 320 318 311 320 315
190 180 10 14 6 343 348 15 10 8 1 350 343 342 344 343 338 335 334 335 337 335 337 339 337 334 323 332 343 341 309 299 301 300 291 300 305 312 325 311 291 294 301
162 106 69 12 331 339 4 14 3 350 337 335 336 339 338 333 329 330 332 334 335 338 340 335 331 329 330 335 342 343 337 313 308 307 307 301 317 318 320 319 285 277 301
59 75 58 337 328 352 13 358 335 326 332 333 335 332 331 332 334 331 331 335 334 337 342 344 337 335 334 341 336 338 340 336 315 304 302 309 317 317 318 322 317 322 341
178 139 229 305 320 338 356 318 311 322 327 330 331 328 330 332 331 332 336 340 341 340 339 338 331 330 333 335 339 338 339 339 329 307 314 325 331 332 333 335 341 352 31
191 195 213 284 303 307 310 296 309 321 325 327 329 332 336 337 337 336 336 335 333 329 326 325 321 319 322 322 326 327 336 343 339 329 333 345 350 351 350 358 3 2 25
209 203 223 253 274 287 295 307 313 323 324 324 329 331 331 329 329 327 322 320 307 311 312 307 306 309 310 314 323 327 326 330 325 337 358 4 7 9 1 360 360 3 21
212 233 244 259 270 271 281 298 308 319 325 325 326 325 325 325 324 323 325 326 325 323 326 324 320 313 311 319 325 330 332 336 337 351 1 345 343 338 334 331 334 342 1